POLYITAN-1 (40042 NORAD) Tracking and Keplerian Element Data

This shows tracking and keplerian element data for the satellite.

Feedback or suggestion? Click here.




ElementValue
Catalog40042
NamePOLYITAN-1
Epoch Orbit57819
Epoch Day34.50307493
Epoch Year2025
RAAN16.3799
Inclination98.0957
Eccentricity0.0013185
Argument of Perigee75.7598
Mean Anonmoly284.5095
Mean Motion15.1291843
Decay Rate0.00022637
L11 40042U 14033AJ 25034.50307493 .00022637 00000+0 12836-2 0 9997
L22 40042 98.0957 16.3799 0013185 75.7598 284.5095 15.12918430578191



Live tracking and technical data element details for POLYITAN-1 (NORAD 40042). POLYITAN-1 can be tracked NOW for your location showing map with azimuth and elevation plus other details from your city location.







IsCatalogInMostPopularTable: catalog: 40042, numindb: 402
Update: records affected: 1



GetName: 40042 POLYITAN-1

Hit Count: updated at: Thu, 15 May 2025 19:45:46 GMT